Weather History for KAQP - December, 2011

Change the Weather History Date:

Sunday, December 18, 2011

  Actual Average Record
Temperature  
Mean Temperature 40 °F -  
Max Temperature 57 °F 22 °F - (-1)
Min Temperature 23 °F 7 °F - (-1)
Degree Days  
Heating Degree Days 25    
Moisture  
Dew Point 24 °F    
Average Humidity 63    
Maximum Humidity 93    
Minimum Humidity 25    
Precipitation  
Precipitation 0.00 in - - ()
Sea Level Pressure  
Sea Level Pressure 29.78 in    
Wind  
Wind Speed 8 mph (SW)    
Max Wind Speed 21 mph    
Max Gust Speed 26 mph    
Visibility 10 miles    
Events      
Averages and records for this station are not official NWS values.
T = Trace of Precipitation, MM = Missing Value Source: NWS Daily Summary

Daily Weather History Graph

Daily Weather History Graph

Search for Another Location

Airport or City:

Trip Planner

Search our weather history database for the weather conditions in past years. The results will help you decide how hot, cold, wet, or windy it might be!

Date:

Astronomy

Dec. 18, 2011 Rise Set
Actual Time 7:58 AM CST 4:42 PM CST
Civil Twilight 7:24 AM CST 5:16 PM CST
Nautical Twilight 6:46 AM CST 5:54 PM CST
Astronomical Twilight 6:10 AM CST 6:30 PM CST
Moon 12:45 AM CST (12/18) 12:21 PM CST (12/18)
Length of Visible Light 9h 52m
Length of Day
8h 44m
Last Quarter, 42% of the Moon is Illuminated
Dec 18
Last Quarter
Dec 24
New
Jan 1
First Quarter
Jan 9
Full
Jan 16
Last Quarter

Hourly Weather History & Observations

Time (CST) Temp. Windchill Dew Point Humidity Pressure Visibility Wind Dir Wind Speed Gust Speed Precip Events Conditions
12:15 AM 23.0 °F 17.0 °F 19.4 °F 86% 30.06 in 10.0 mi South 4.6 mph - N/A   Clear
12:35 AM 23.0 °F 17.0 °F 19.4 °F 86% 30.05 in 10.0 mi South 4.6 mph - N/A   Clear
12:54 AM 24.8 °F 16.9 °F 21.2 °F 86% 30.03 in 10.0 mi South 6.9 mph - N/A   Clear
1:15 AM 24.8 °F 16.9 °F 21.2 °F 86% 30.02 in 10.0 mi SSE 6.9 mph - N/A   Clear
1:34 AM 23.0 °F 17.0 °F 21.2 °F 93% 30.01 in 10.0 mi South 4.6 mph - N/A   Clear
1:54 AM 24.8 °F 17.9 °F 21.2 °F 86% 29.99 in 10.0 mi South 5.8 mph - N/A   Clear
2:54 AM 24.8 °F 16.1 °F 21.2 °F 86% 29.95 in 10.0 mi South 8.1 mph - N/A   Clear
3:35 AM 24.8 °F 17.9 °F 21.2 °F 86% 29.93 in 10.0 mi South 5.8 mph - N/A   Clear
3:54 AM 26.6 °F 21.2 °F 21.2 °F 80% 29.92 in 10.0 mi SSE 4.6 mph - N/A   Clear
4:14 AM 26.6 °F 20.0 °F 21.2 °F 80% 29.91 in 10.0 mi SSE 5.8 mph - N/A   Clear
4:35 AM 26.6 °F 20.0 °F 23.0 °F 86% 29.90 in 10.0 mi SSE 5.8 mph - N/A   Clear
4:54 AM 24.8 °F 20.5 °F 21.2 °F 86% 29.89 in 10.0 mi SSE 3.5 mph - N/A   Clear
5:14 AM 24.8 °F 19.1 °F 21.2 °F 86% 29.88 in 10.0 mi South 4.6 mph - N/A   Clear
5:35 AM 24.8 °F 19.1 °F 21.2 °F 86% 29.87 in 10.0 mi SSE 4.6 mph - N/A   Clear
5:54 AM 26.6 °F 20.0 °F 21.2 °F 80% 29.86 in 10.0 mi South 5.8 mph - N/A   Clear
6:15 AM 26.6 °F 20.0 °F 21.2 °F 80% 29.85 in 10.0 mi South 5.8 mph - N/A   Clear
6:34 AM 26.6 °F 21.2 °F 21.2 °F 80% 29.84 in 10.0 mi South 4.6 mph - N/A   Clear
6:55 AM 28.4 °F 23.3 °F 23.0 °F 80% 29.83 in 10.0 mi South 4.6 mph - N/A   Clear
7:14 AM 28.4 °F 21.2 °F 23.0 °F 80% 29.82 in 10.0 mi South 6.9 mph - N/A   Clear
7:55 AM 28.4 °F 21.2 °F 23.0 °F 80% 29.82 in 10.0 mi SSW 6.9 mph - N/A   Clear
8:14 AM 30.2 °F 22.6 °F 24.8 °F 80% 29.80 in 10.0 mi SSW 8.1 mph - N/A   Clear
8:34 AM 32.0 °F 24.2 °F 24.8 °F 75% 29.79 in 10.0 mi SSW 9.2 mph - N/A   Clear
8:55 AM 33.8 °F 26.4 °F 24.8 °F 70% 29.79 in 10.0 mi SSW 9.2 mph - N/A   Clear
9:14 AM 33.8 °F 25.8 °F 26.6 °F 75% 29.79 in 10.0 mi SW 10.4 mph - N/A   Clear
9:35 AM 35.6 °F 28.0 °F 26.6 °F 70% 29.78 in 10.0 mi SW 10.4 mph - N/A   Clear
10:14 AM 39.2 °F 33.0 °F 26.6 °F 61% 29.77 in 10.0 mi SSW 9.2 mph - N/A   Clear
10:35 AM 39.2 °F 32.0 °F 26.6 °F 61% 29.76 in 10.0 mi SW 11.5 mph - N/A   Clear
10:54 AM 42.8 °F 36.6 °F 26.6 °F 53% 29.76 in 10.0 mi SW 11.5 mph - N/A   Clear
11:14 AM 44.6 °F 38.1 °F 26.6 °F 49% 29.75 in 10.0 mi SW 13.8 mph - N/A   Clear
11:34 AM 46.4 °F 41.5 °F 26.6 °F 46% 29.74 in 10.0 mi SW 10.4 mph - N/A   Clear
12:14 PM 48.2 °F - 24.8 °F 40% 29.71 in 10.0 mi WSW 10.4 mph - N/A   Clear
12:35 PM 51.8 °F - 24.8 °F 35% 29.70 in 10.0 mi WSW 15.0 mph 18.4 mph N/A   Clear
1:14 PM 53.6 °F - 24.8 °F 33% 29.68 in 10.0 mi WSW 12.7 mph - N/A   Clear
1:35 PM 55.4 °F - 24.8 °F 31% 29.67 in 10.0 mi SW 11.5 mph - N/A   Clear
1:54 PM 57.2 °F - 23.0 °F 27% 29.66 in 10.0 mi WSW 11.5 mph - N/A   Clear
2:14 PM 57.2 °F - 21.2 °F 25% 29.66 in 10.0 mi WSW 17.3 mph - N/A   Clear
2:35 PM 57.2 °F - 23.0 °F 27% 29.65 in 10.0 mi WSW 11.5 mph - N/A   Clear
2:54 PM 57.2 °F - 21.2 °F 25% 29.65 in 10.0 mi WSW 10.4 mph - N/A   Clear
3:14 PM 57.2 °F - 21.2 °F 25% 29.65 in 10.0 mi WSW 12.7 mph 19.6 mph N/A   Clear
3:34 PM 55.4 °F - 21.2 °F 26% 29.65 in 10.0 mi West 9.2 mph - N/A   Clear
3:54 PM 53.6 °F - 21.2 °F 28% 29.65 in 10.0 mi WSW 8.1 mph - N/A   Clear
4:15 PM 51.8 °F - 23.0 °F 33% 29.66 in 10.0 mi WSW 10.4 mph - N/A   Clear
4:34 PM 48.2 °F - 23.0 °F 37% 29.66 in 10.0 mi SW 10.4 mph - N/A   Clear
5:15 PM 42.8 °F 37.0 °F 23.0 °F 46% 29.66 in 10.0 mi WSW 10.4 mph - N/A   Clear
5:35 PM 42.8 °F 37.5 °F 24.8 °F 49% 29.66 in 10.0 mi WSW 9.2 mph - N/A   Clear
5:54 PM 42.8 °F 37.5 °F 24.8 °F 49% 29.66 in 10.0 mi WSW 9.2 mph - N/A   Clear
6:14 PM 39.2 °F 33.6 °F 24.8 °F 56% 29.68 in 10.0 mi WSW 8.1 mph - N/A   Clear
6:35 PM 39.2 °F 33.0 °F 24.8 °F 56% 29.68 in 10.0 mi WSW 9.2 mph - N/A   Clear
6:54 PM 37.4 °F 31.4 °F 24.8 °F 60% 29.68 in 10.0 mi West 8.1 mph - N/A   Clear
7:15 PM 37.4 °F 31.4 °F 26.6 °F 65% 29.69 in 10.0 mi West 8.1 mph - N/A   Clear
7:34 PM 37.4 °F 30.8 °F 24.8 °F 60% 29.69 in 10.0 mi West 9.2 mph - N/A   Clear
7:54 PM 37.4 °F 31.4 °F 26.6 °F 65% 29.69 in 10.0 mi West 8.1 mph - N/A   Clear
8:14 PM 37.4 °F 31.4 °F 26.6 °F 65% 29.70 in 10.0 mi West 8.1 mph - N/A   Clear
8:34 PM 33.8 °F 25.8 °F 26.6 °F 75% 29.71 in 10.0 mi West 10.4 mph - N/A   Clear
8:55 PM 37.4 °F 30.3 °F 26.6 °F 65% 29.71 in 10.0 mi West 10.4 mph - N/A   Clear
9:14 PM 37.4 °F 31.4 °F 26.6 °F 65% 29.71 in 10.0 mi West 8.1 mph - N/A   Clear
9:34 PM 39.2 °F 31.6 °F 26.6 °F 61% 29.72 in 10.0 mi WNW 12.7 mph - N/A   Clear
9:55 PM 41.0 °F 33.1 °F 26.6 °F 57% 29.74 in 10.0 mi NW 15.0 mph - N/A   Clear
10:14 PM 41.0 °F 32.8 °F 28.4 °F 61% 29.76 in 10.0 mi NW 16.1 mph 21.9 mph N/A   Clear
10:35 PM 39.2 °F 30.8 °F 28.4 °F 65% 29.77 in 10.0 mi NNW 15.0 mph 21.9 mph N/A   Clear
10:54 PM 37.4 °F 27.8 °F 28.4 °F 70% 29.79 in 10.0 mi NNW 17.3 mph 25.3 mph N/A   Clear
11:14 PM 35.6 °F 25.9 °F 28.4 °F 75% 29.81 in 10.0 mi NNW 16.1 mph 21.9 mph N/A   Clear
11:35 PM 33.8 °F 22.2 °F 28.4 °F 81% 29.83 in 10.0 mi NNW 20.7 mph 26.5 mph N/A   Clear
11:54 PM 33.8 °F 22.5 °F 28.4 °F 81% 29.84 in 10.0 mi NNW 19.6 mph 25.3 mph N/A   Clear